Flag Weather past 2 weeks in Klagenfurt, Carinthia, Austria

Now
37 °F

Passing clouds.


Feels Like: 37 °F
Forecast: 34 / 45 °F
Wind: 1 mph from North

Location: Klagenfurt-Flughafen

Current Time: Nov 24, 2014 at 5:09:35 AM

Latest Report: Nov 24, 2014 at 3:50 AM


Visibility: 4 mi

Pressure: 30.30 "Hg

Humidity: 100%

Dew point: 37 °F

Location of KlagenfurtLocation

Historic Weather in Klagenfurt — Graph

°F

Klagenfurt temperature yesterday

Maximum temperature yesterday: 39 °F (at 8:20 AM)
Minimum temperature yesterday: 36 °F (at 12:20 AM)
Average temperature yesterday: 38 °F

Past Weeks' High & Low Weather Summary

 TemperatureHumidityPressure
High57 °F (Nov 16, 2:50 PM)100% (Nov 9, 3:20 AM)30.39 "Hg (Nov 9, 3:20 AM)
Low34 °F (Nov 22, 10:20 PM)55% (Nov 16, 3:20 PM)29.59 "Hg (Nov 16, 1:50 AM)
Average46 °F92%29.99 "Hg
* Reported Nov 9 3:20 AM — Nov 24 3:50 AM, Klagenfurt, Weather by CustomWeather, © 2014

Note: Actual official high and low records may vary slightly from our data, if they occured in-between our weather recording intervals... More about our weather records

Advertising

Klagenfurt weather history for previous 24 hours

 ConditionsComfort  
Time TempWeatherWind HumidityBarometerVisibility
3:50 AM
Nov 24
37 °FPassing clouds.1 mph100%30.30 "Hg4 mi
3:20 AM37 °FPassing clouds.1 mph100%30.33 "HgN/A
2:50 AM37 °FPassing clouds.2 mph100%30.33 "Hg6 mi
2:20 AM37 °FLight rain. Passing clouds.2 mph100%30.33 "Hg4 mi
1:50 AM37 °FPassing clouds.2 mph100%30.33 "Hg4 mi
1:20 AM39 °FLow clouds.1 mph93%30.36 "Hg6 mi
12:50 AM37 °FPassing clouds.2 mph100%30.36 "HgN/A
12:20 AM37 °FPassing clouds.1 mph100%30.36 "HgN/A
11:50 PM
Nov 23
37 °FPassing clouds.2 mph100%30.36 "HgN/A
11:20 PM39 °FPassing clouds.2 mph93%30.36 "Hg5 mi
10:50 PM37 °FPassing clouds.1 mph100%30.36 "Hg4 mi
10:20 PM37 °FPassing clouds.1 mph100%30.36 "Hg4 mi
9:50 PM37 °FPassing clouds.2 mph100%30.36 "Hg4 mi
9:20 PM37 °FPassing clouds.1 mph100%30.36 "Hg4 mi
8:50 PM37 °FPassing clouds.2 mph100%30.36 "Hg4 mi
8:20 PM39 °FPassing clouds.3 mph93%30.36 "Hg4 mi
7:50 PM37 °FPassing clouds.2 mph100%30.36 "Hg4 mi
7:20 PM39 °FPassing clouds.1 mph93%30.36 "Hg4 mi
6:50 PM39 °FPassing clouds.3 mph93%30.36 "Hg5 mi
6:20 PM39 °FPartly cloudy.1 mph93%30.36 "Hg5 mi
5:50 PM39 °FPassing clouds.3 mph93%30.36 "Hg5 mi
5:20 PM39 °FPassing clouds.3 mph93%30.33 "Hg5 mi
4:50 PM39 °FPassing clouds.2 mph93%30.33 "Hg5 mi
4:20 PM39 °FPartly sunny.2 mph93%30.33 "Hg5 mi
3:50 PM39 °FPartly sunny.2 mph93%30.33 "Hg5 mi
3:20 PM39 °FPartly sunny.3 mph93%30.33 "Hg5 mi
2:50 PM39 °FBroken clouds.2 mph93%30.33 "Hg5 mi
2:20 PM39 °FBroken clouds.1 mph93%30.33 "Hg5 mi
1:50 PM39 °FBroken clouds.2 mph93%30.33 "Hg5 mi
1:20 PM39 °FBroken clouds.3 mph93%30.33 "Hg5 mi
12:50 PM39 °FBroken clouds.2 mph93%30.36 "Hg5 mi
12:20 PM39 °FBroken clouds.2 mph93%30.36 "Hg5 mi
11:50 AM39 °FBroken clouds.2 mph93%30.36 "Hg5 mi
11:20 AM39 °FFog.3 mph93%30.36 "Hg3 mi
10:50 AM39 °FFog.2 mph93%30.39 "Hg3 mi
10:20 AM39 °FFog.2 mph93%30.39 "Hg3 mi
9:50 AM39 °FDrizzle. Fog.3 mph93%30.36 "Hg3 mi
9:20 AM39 °FDrizzle. Fog.1 mph93%30.36 "Hg3 mi
8:50 AM39 °FDrizzle. Fog.2 mph93%30.36 "Hg3 mi
8:20 AM39 °FDrizzle. Fog.1 mph93%30.36 "Hg2 mi
7:50 AM37 °FDrizzle. Fog.1 mph100%30.36 "Hg2 mi
7:20 AM37 °FDrizzle. Fog.2 mph100%30.36 "Hg1 mi
6:50 AM37 °FDrizzle. Fog.1 mph100%30.33 "Hg1 mi
6:20 AM37 °FFog.2 mph100%30.33 "Hg1 mi
5:50 AM37 °FFog.1 mph100%30.33 "Hg2 mi
5:20 AM37 °FFog.1 mph100%30.33 "Hg2 mi
Weather by CustomWeather, © 2014

See weather overviewHow to use our weather pages